Regional Weather Roundup
Issued by NWS Sioux Falls, SD

Home | Current Version | Previous Version | Text Only | Print | Product List | Glossary On
Versions: 1 2 3 4 5 6 7 8 9 10 11 12 13 14 15 16 17 18 19 20 21 22 23 24 25 26 27 28 29 30 31 32 33 34 35 36 37 38 39 40 41 42 43 44 45 46 47 48 49 50
000
ASUS43 KFSD 021002
RWRFSD

WEATHER ROUNDUP FOR SE SOUTH DAKOTA/SW MINNESOTA/NW IOWA
NATIONAL WEATHER SERVICE SIOUX FALLS SD
400 AM CST MON MAR 02 2015

NOTE: "FAIR" INDICATES FEW OR NO CLOUDS BELOW 12,000 FEET WITH NO
SIGNIFICANT WEATHER AND OR OBSTRUCTIONS TO VISIBILITY.


SDZ038>040-050-052>070-021100-
SOUTHEAST SOUTH DAKOTA

CITY           SKY/WX    TMP DP  RH WIND       PRES   REMARKS
CHAMBERLAIN    NOT AVBL
HURON          PTCLDY     6   3  87 S7        30.43F WCI  -6
MADISON        FAIR       5   5 100 S3        30.40F
MITCHELL       PTCLDY    11   7  84 S5        30.45F WCI   3
SIOUX FALLS    PTCLDY     7   3  84 CALM      30.44S
WINNER         FAIR      14   3  61 SE10      30.33F WCI   1
YANKTON        PTCLDY    10   9  92 CALM      30.46F
$$

MNZ071-072-080-081-089-090-097-098-021100-
SOUTHWEST MINNESOTA

CITY           SKY/WX    TMP DP  RH WIND       PRES   REMARKS
FAIRMONT       MOCLDY     9   3  78 NW3       30.43S
JACKSON        MOCLDY     9   5  85 NW5       30.44R WCI   0
LUVERNE        PTCLDY     7   3  85 CALM      30.45S
MARSHALL       PTCLDY     7   0  72 W7        30.44F WCI  -5
MONTEVIDEO     MOCLDY     7   3  85 NW6       30.46S WCI  -3
PIPESTONE      PTCLDY     7   3  85 CALM      30.41S FOG
REDWOOD FALLS  PTCLDY     8   5  87 W7        30.46S WCI  -3
TRACY          PTCLDY    10   5  82 W5        30.44S WCI   1
WINDOM         MOCLDY     3   1  92 CALM      30.43S
WORTHINGTON    PTCLDY     9   0  66 W3        30.45R
$$

IAZ001>003-012>014-020>022-031-032-NEZ013-014-SDZ071-021100-
NORTHWEST IOWA

CITY           SKY/WX    TMP DP  RH WIND       PRES   REMARKS
DENISON        PTCLDY    10   9  92 CALM      30.47S
ESTHERVILLE    MOCLDY     6   3  87 W6        30.45R WCI  -4
SIOUX CITY     PTCLDY    16  11  80 CALM      30.48F
SPENCER        PTCLDY     4   0  83 W3        30.45S
$$

ABBREVIATIONS USED IN REMARKS
   TC - TEMPERATURE IN CELSIUS
  WCI - WIND CHILL INDEX
   HX - HEAT INDEX
  VSB - VISIBILITY




USA.gov is the U.S. government's official web portal to all federal, state and local government web resources and services.